Laramie, WY

2:46 AM MDT on August 19, 2017 (GMT -0600)
Laramie Regional

Weather History for KLAR - August, 2012

Change the Weather History Date:

Tuesday, August 7, 2012

  Actual Average Record
Temperature  
Mean Temperature 67 °F 64 °F  
Max Temperature 84 °F 79 °F 90 °F (1980)
Min Temperature 49 °F 48 °F 39 °F (1996)
Degree Days  
Heating Degree Days 0 2  
Month to date heating degree days 2 14  
Since 1 June heating degree days 96 324  
Since 1 July heating degree days 14 83  
Cooling Degree Days 2 1  
Month to date cooling degree days 16 7  
Year to date cooling degree days 184 54  
Since 1 June cooling degree days 184 54  
Growing Degree Days 18 (Base 50)    
Moisture  
Dew Point 35 °F    
Average Humidity 43    
Maximum Humidity 77    
Minimum Humidity 8    
Precipitation  
Precipitation T in 0.04 in 1.06 in (2002)
Month to date precipitation 0.05 0.33  
Year to date precipitation 4.13 7.25  
Sea Level Pressure  
Sea Level Pressure 30.09 in    
Wind  
Wind Speed 9 mph (NNE)    
Max Wind Speed 25 mph    
Max Gust Speed 32 mph    
Visibility 10 miles    
Events      
T = Trace of Precipitation, MM = Missing Value Source: NWS Daily Summary

Daily Weather History Graph

Daily Weather History Graph

Search for Another Location

Airport or City:

Trip Planner

Search our weather history database for the weather conditions in past years. The results will help you decide how hot, cold, wet, or windy it might be!

Date:

Astronomy

Aug. 07, 2012 Rise Set
Actual Time 6:04 AM MDT 8:11 PM MDT
Civil Twilight 5:33 AM MDT 8:42 PM MDT
Nautical Twilight 4:56 AM MDT 9:19 PM MDT
Astronomical Twilight 4:15 AM MDT 9:59 PM MDT
Moon 10:48 PM MDT (8/7) 11:59 AM MDT (8/7)
Length of Visible Light 15h 08m
Length of Day
14h 07m
Waning Gibbous, 69% of the Moon is Illuminated
Aug 7
Waning Gibbous
Aug 9
Last Quarter
Aug 17
New
Aug 24
First Quarter
Aug 31
Full

Hourly Weather History & Observations

Time (MDT) Temp. Dew Point Humidity Pressure Visibility Wind Dir Wind Speed Gust Speed Precip Events Conditions
12:53 AM 57.9 °F 46.9 °F 67% 30.05 in 10.0 mi South 8.1 mph - N/A   Mostly Cloudy
1:53 AM 54.0 °F 46.9 °F 77% 30.06 in 10.0 mi ESE 9.2 mph - N/A   Clear
2:53 AM 55.9 °F 46.0 °F 69% 30.10 in 10.0 mi SE 6.9 mph - 0.00 in   Mostly Cloudy
3:53 AM 53.1 °F 45.0 °F 74% 30.08 in 10.0 mi SSE 8.1 mph - N/A   Partly Cloudy
4:53 AM 53.1 °F 46.0 °F 77% 30.07 in 10.0 mi SSE 9.2 mph - N/A   Clear
5:53 AM 51.1 °F 44.1 °F 77% 30.09 in 10.0 mi SSE 6.9 mph - N/A   Clear
6:53 AM 53.1 °F 45.0 °F 74% 30.10 in 10.0 mi SSE 8.1 mph - N/A   Clear
7:53 AM 59.0 °F 46.0 °F 62% 30.12 in 10.0 mi South 4.6 mph - N/A   Clear
8:53 AM 66.9 °F 46.0 °F 47% 30.10 in 10.0 mi Calm Calm - N/A   Clear
9:53 AM 71.1 °F 44.1 °F 38% 30.11 in 10.0 mi NNE 6.9 mph - N/A   Clear
10:53 AM 73.9 °F 44.1 °F 34% 30.10 in 10.0 mi North 10.4 mph 17.3 mph N/A   Clear
11:53 AM 79.0 °F 39.9 °F 25% 30.08 in 10.0 mi North 13.8 mph 24.2 mph N/A   Clear
12:53 PM 82.0 °F 30.0 °F 15% 30.05 in 10.0 mi North 16.1 mph 31.1 mph N/A   Clear
1:53 PM 82.9 °F 26.1 °F 13% 30.05 in 10.0 mi NNW 19.6 mph 28.8 mph N/A   Clear
2:53 PM 84.0 °F 17.1 °F 8% 30.04 in 10.0 mi North 20.7 mph 25.3 mph N/A   Clear
3:53 PM 82.9 °F 23.0 °F 11% 30.04 in 10.0 mi North 9.2 mph 29.9 mph N/A   Clear
4:53 PM 82.9 °F 21.9 °F 11% 30.04 in 10.0 mi NW 13.8 mph 27.6 mph N/A   Clear
5:53 PM 82.0 °F 23.0 °F 11% 30.05 in 10.0 mi North 13.8 mph 25.3 mph N/A   Clear
6:53 PM 79.0 °F 23.0 °F 13% 30.06 in 10.0 mi NNW 12.7 mph - N/A   Clear
7:53 PM 73.9 °F 25.0 °F 16% 30.06 in 10.0 mi North 8.1 mph - N/A   Clear
8:53 PM 69.1 °F 23.0 °F 18% 30.06 in 10.0 mi North 6.9 mph - N/A   Clear
9:53 PM 66.9 °F 23.0 °F 19% 30.06 in 10.0 mi NNE 3.5 mph - N/A   Clear
10:53 PM 57.2 °F 26.6 °F 31% 30.41 in 10.0 mi Calm Calm - N/A   Clear
11:53 PM 53.1 °F 27.0 °F 37% 30.09 in 10.0 mi SW 5.8 mph - N/A   Clear